[[{"header":{"parameterUnit":"m.s-1","parameterCategory":1,"la1":30.2991,"la2":30.254,"lo1":-89.0895,"lo2":-89.0444,"dy":0.0017,"dx":0.0017,"nx":28,"ny":28,"refTime":"2023-09-27T03:00:00:Z","depth":0,"parameterNumber":2,"parameterNumberName":"U-component_of_WINDS"},"data":[0,0,0,0,0,0,0,0,0,0,0,0,0,0,0,0,0,0,0,0,0,0,0,0,0,0,0,0,0,0,0,0,0,0,0,0,0,0,0,0,0,0,0,0,0,0,0,0,0,0,0,0,0,0,0,0,0,0,-3.208,-3.2081,0,-3.2186,-3.2188,-3.2189,-3.2177,-3.2175,-3.2173,-3.2172,-3.2282,-3.2286,-3.2291,0,0,0,0,0,0,0,0,0,0,0,0,0,-3.1868,-3.1872,-3.208,-3.2081,-3.2082,-3.2186,-3.2188,-3.2189,-3.2177,-3.2175,-3.2173,-3.2171,-3.2281,-3.2286,-3.2291,0,0,0,0,0,0,0,0,0,0,0,0,0,-3.1966,-3.1873,-3.2079,-3.2089,-3.2091,-3.2186,-3.2188,-3.219,-3.2177,-3.2175,-3.2172,-3.217,-3.2279,-3.2285,-3.2292,-3.2385,0,0,-3.2313,-3.2316,0,0,0,0,0,0,0,0,-3.196,-3.1973,-3.2086,-3.2088,-3.2091,-3.2166,-3.2153,-3.2255,-3.2178,-3.2144,-3.2172,-3.2169,-3.2245,-3.2255,-3.228,-3.2391,-3.2395,-3.2313,-3.2318,-3.2321,-3.2322,0,0,0,0,0,0,0,-3.1953,-3.1969,-3.2122,-3.2088,-3.2091,-3.2088,-3.2099,-3.2173,-3.2208,-3.2147,-3.2147,-3.2159,-3.2246,-3.2274,-3.2283,-3.2397,-3.2313,-3.2319,-3.2324,-3.2326,-3.2592,-3.2594,0,0,0,0,0,0,-3.1944,-3.1963,-3.2119,-3.2125,-3.2018,-3.2094,-3.2107,-3.2144,-3.2207,-3.2214,-3.2161,-3.2158,-3.2264,-3.2275,-3.2287,-3.2402,-3.232,-3.2327,-3.2331,-3.2589,-3.2592,-3.2596,0,0,0,0,0,0,-3.1939,-3.1958,-3.2114,-3.2044,-3.2064,-3.2101,-3.2143,-3.2148,-3.2175,-3.2218,-3.2224,-3.2183,-3.2262,-3.2277,-3.2361,-3.2406,-3.233,-3.2336,-3.2585,-3.259,-3.2594,-3.2633,0,0,0,0,0,0,-3.1933,-3.1956,-3.1992,-3.2045,-3.2068,-3.2187,-3.2145,-3.2151,-3.2187,-3.2184,-3.224,-3.2247,-3.2261,-3.2351,-3.2368,-3.2414,-3.2341,-3.2581,-3.2587,-3.2592,-3.2628,-3.2638,-3.2647,0,0,0,0,0,-3.1926,-3.1998,-3.1993,-3.2012,-3.2112,-3.2189,-3.2202,-3.2217,-3.219,-3.2227,-3.2255,-3.2245,-3.2398,-3.236,-3.2379,-3.2427,-3.2579,-3.2586,-3.2592,-3.2623,-3.2636,-3.2646,0,0,0,0,0,0,-3.1949,-3.2005,-3.2001,-3.2092,-3.2136,-3.2187,-3.2233,-3.2229,-3.2282,-3.2277,-3.2293,-3.2306,-3.2391,-3.2417,-3.2374,-3.2522,-3.2485,-3.2496,-3.2502,-3.2514,-3.2524,-3.2517,-3.2347,0,0,0,0,0,-3.1964,-3.2021,-3.2068,-3.2144,-3.2166,-3.2196,-3.223,-3.2237,-3.2284,-3.2302,-3.2336,-3.2382,-3.244,-3.2479,-3.2535,-3.2631,-3.2644,-3.2674,-3.2683,-3.2691,-3.27,-3.2756,-3.277,-3.2617,-3.2617,-3.2617,0,0,-3.1997,-3.2035,-3.207,-3.2149,-3.2184,-3.2244,-3.2211,-3.2276,-3.2321,-3.2312,-3.2394,-3.2421,-3.2473,-3.2564,-3.2606,-3.2589,-3.2745,-3.2699,-3.2705,-3.2711,-3.2764,-3.2779,-3.2791,-3.2622,-3.2621,-3.262,0,0,-3.2088,-3.2122,-3.219,-3.2226,-3.2279,-3.2299,-3.2315,-3.2367,-3.2385,-3.2467,-3.2463,-3.2517,-3.2617,-3.2655,-3.2687,-3.2795,-3.2789,-3.2813,-3.2863,-3.2917,-3.2929,-3.294,-3.298,-3.2994,-3.2822,-3.2822,-3.2822,0,-3.2123,-3.2212,-3.2226,-3.2291,-3.2327,-3.2322,-3.2392,-3.2427,-3.2496,-3.2521,-3.25,-3.2627,-3.2662,-3.2763,-3.279,-3.2815,-3.2836,-3.2807,-3.2926,-3.2937,-3.2947,-3.2986,-3.3001,-3.2824,-3.2824,-3.2824,-3.2824,0,-3.2253,-3.2315,-3.2364,-3.2432,-3.2473,-3.254,-3.2565,-3.2605,-3.261,-3.2632,-3.2717,-3.2759,-3.2824,-3.2848,-3.2853,-3.2951,-3.2939,-3.2922,-3.2885,-3.2964,-3.3001,-3.3016,-3.2828,-3.2827,-3.2827,-3.2826,0,0,-3.2362,-3.2436,-3.2454,-3.2486,-3.2545,-3.2594,-3.2662,-3.2726,-3.2761,-3.2809,-3.2868,-3.2953,-3.2939,-3.2975,-3.2984,-3.3031,-3.3117,-3.3009,-3.301,-3.3029,-3.3231,-3.3245,-3.3262,-3.3113,-3.3116,-3.3118,-3.3227,0,-3.246,-3.258,-3.2595,-3.2702,-3.2761,-3.2758,-3.2817,-3.2861,-3.2884,-3.2938,-3.2963,-3.3024,-3.2998,-3.3021,-3.3067,-3.3097,-3.3158,-3.3089,-3.317,-3.3172,-3.3158,-3.3281,-3.3295,-3.3396,-3.3242,-3.3244,-3.3246,0,-3.2591,-3.2643,-3.2757,-3.281,-3.2835,-3.2888,-3.2949,-3.3,-3.305,-3.3064,-3.3106,-3.3109,-3.3181,-3.314,-3.3241,-3.3194,-3.3228,-3.3247,-3.3251,-3.3261,-3.3215,-3.3296,-3.3429,-3.3445,-3.3268,-3.3266,-3.3265,0,-3.2661,-3.276,-3.2841,-3.2868,-3.2931,-3.2969,-3.2998,-3.3045,-3.3083,-3.3137,-3.3162,-3.3223,-3.3257,-3.3305,-3.3326,-3.3293,-3.3426,-3.3386,-3.3441,-3.3441,-3.347,-3.3468,-3.3613,-3.3489,-3.3488,-3.3488,-3.3488,0,-3.2771,-3.2841,-3.2874,-3.2924,-3.3003,-3.302,-3.3098,-3.3125,-3.3167,-3.3224,-3.3224,-3.3277,-3.33,-3.3357,-3.3373,-3.3456,-3.347,-3.3485,-3.3489,-3.3486,-3.3484,-3.351,-3.3504,-3.3492,-3.3491,-3.349,-3.349,0,-3.2864,-3.2888,-3.2977,-3.303,-3.3045,-3.3101,-3.3147,-3.3197,-3.3219,-3.329,-3.3308,-3.3344,-3.3411,-3.3436,-3.3518,-3.3529,-3.3625,-3.3622,-3.3608,-3.361,-3.3664,-3.366,-3.3831,-3.3856,-3.3714,-3.3715,-3.3716,0,-3.2933,-3.2987,-3.3046,-3.3084,-3.3113,-3.3174,-3.3213,-3.3232,-3.3273,-3.3335,-3.3378,-3.3445,-3.35,-3.3608,-3.3642,-3.3705,-3.3705,-3.3761,-3.3715,-3.3711,-3.3709,-3.3706,-3.3713,-3.377,-3.3771,-3.3773,-3.3774,0,-3.3054,-3.3064,-3.312,-3.3182,-3.3229,-3.3278,-3.3326,-3.3357,-3.3384,-3.343,-3.3499,-3.3542,-3.3626,-3.3694,-3.3759,-3.3789,-3.3787,-3.3788,-3.3804,-3.3803,-3.3794,-3.3802,-3.3634,-3.3784,-3.3783,-3.3782,-3.3782,-3.3781,-3.3138,-3.3187,-3.3237,-3.33,-3.3339,-3.3384,-3.3434,-3.3463,-3.352,-3.359,-3.3598,-3.3673,-3.3724,-3.3811,-3.3845,-3.3904,-3.3889,-3.3912,-3.3919,-3.3925,-3.393,-3.3783,-3.3916,-3.3916,-3.3915,-3.3915,-3.3915,0,-3.3261,-3.3293,-3.3351,-3.3419,-3.347,-3.3462,-3.3516,-3.3559,-3.3625,-3.3672,-3.3726,-3.3807,-3.3873,-3.3912,-3.3979,-3.4019,-3.402,-3.4036,-3.4034,-3.4042,-3.3938,-3.3919,-3.4035,-3.4035,-3.4035,-3.4034,-3.4034,-3.4034,-3.3331,-3.3414,-3.343,-3.3533,-3.3565,-3.3638,-3.3669,-3.3712,-3.375,-3.384,-3.3895,-3.392,-3.3965,-3.4035,-3.4096,-3.4106,-3.4131,-3.4149,-3.4158,-3.4061,-3.4049,-3.4037,-3.4019,-3.4154,-3.4154,-3.4257,-3.4258,-3.4259]},{"header":{"parameterUnit":"m.s-1","parameterCategory":1,"la1":30.2991,"la2":30.254,"lo1":-89.0895,"lo2":-89.0444,"dy":0.0017,"dx":0.0017,"nx":28,"ny":28,"refTime":"2023-09-27T03:00:00:Z","depth":0,"parameterNumber":3,"parameterNumberName":"V-component_of_WINDS"},"data":[0,0,0,0,0,0,0,0,0,0,0,0,0,0,0,0,0,0,0,0,0,0,0,0,0,0,0,0,0,0,0,0,0,0,0,0,0,0,0,0,0,0,0,0,0,0,0,0,0,0,0,0,0,0,0,0,0,0,-1.3658,-1.3659,0,-1.3786,-1.3787,-1.3789,-1.3817,-1.3816,-1.3815,-1.3814,-1.395,-1.3955,-1.3959,0,0,0,0,0,0,0,0,0,0,0,0,0,-1.3443,-1.3447,-1.3658,-1.3659,-1.3661,-1.3785,-1.3787,-1.3789,-1.3817,-1.3816,-1.3815,-1.3814,-1.3949,-1.3954,-1.3959,0,0,0,0,0,0,0,0,0,0,0,0,0,-1.3551,-1.3448,-1.3657,-1.369,-1.3694,-1.3785,-1.3787,-1.379,-1.3817,-1.3816,-1.3815,-1.3813,-1.3947,-1.3954,-1.396,-1.403,0,0,-1.3981,-1.3984,0,0,0,0,0,0,0,0,-1.3544,-1.3558,-1.3683,-1.3688,-1.3692,-1.3784,-1.3762,-1.387,-1.3818,-1.3771,-1.3814,-1.3813,-1.3896,-1.3907,-1.3934,-1.4036,-1.4042,-1.3981,-1.3985,-1.3988,-1.399,0,0,0,0,0,0,0,-1.3537,-1.3553,-1.3708,-1.3685,-1.3691,-1.37,-1.3714,-1.3782,-1.384,-1.3775,-1.3777,-1.3791,-1.3899,-1.3928,-1.3938,-1.4044,-1.3981,-1.3987,-1.3991,-1.3994,-1.4213,-1.4215,0,0,0,0,0,0,-1.3523,-1.3547,-1.3704,-1.3712,-1.3613,-1.3705,-1.372,-1.3756,-1.3839,-1.385,-1.3793,-1.3792,-1.3917,-1.393,-1.3943,-1.4033,-1.3988,-1.3995,-1.3998,-1.4212,-1.4214,-1.4216,0,0,0,0,0,0,-1.3518,-1.3537,-1.3699,-1.363,-1.3652,-1.371,-1.375,-1.3759,-1.3789,-1.3853,-1.3864,-1.3811,-1.3916,-1.3933,-1.4008,-1.4038,-1.3998,-1.4004,-1.4209,-1.4212,-1.4215,-1.4212,0,0,0,0,0,0,-1.3512,-1.3535,-1.3561,-1.363,-1.3655,-1.3761,-1.3752,-1.3763,-1.38,-1.38,-1.3873,-1.3884,-1.3917,-1.3998,-1.4015,-1.4046,-1.4009,-1.4207,-1.4211,-1.4214,-1.4209,-1.4214,-1.4218,0,0,0,0,0,-1.3504,-1.3555,-1.3562,-1.3581,-1.3688,-1.3763,-1.3777,-1.3812,-1.3802,-1.3829,-1.3871,-1.3882,-1.4031,-1.4006,-1.4025,-1.4059,-1.4206,-1.421,-1.4214,-1.4208,-1.4213,-1.4217,0,0,0,0,0,0,-1.3488,-1.3564,-1.3573,-1.3647,-1.3698,-1.3767,-1.3803,-1.3816,-1.3872,-1.3871,-1.3913,-1.3929,-1.4003,-1.4038,-1.4008,-1.4132,-1.4118,-1.4126,-1.4107,-1.4113,-1.4117,-1.4108,-1.4015,0,0,0,0,0,-1.3493,-1.3545,-1.361,-1.3669,-1.3694,-1.3744,-1.3778,-1.38,-1.3855,-1.3877,-1.3924,-1.3979,-1.4039,-1.4077,-1.4135,-1.4213,-1.4232,-1.4246,-1.425,-1.4254,-1.4261,-1.4309,-1.4317,-1.4229,-1.4229,-1.4229,0,0,-1.3504,-1.3552,-1.3583,-1.3667,-1.3709,-1.3765,-1.3762,-1.382,-1.3863,-1.3887,-1.3962,-1.3998,-1.4062,-1.414,-1.4176,-1.4171,-1.4289,-1.4259,-1.4261,-1.4267,-1.4314,-1.4323,-1.433,-1.4232,-1.4231,-1.4231,0,0,-1.3553,-1.3593,-1.3649,-1.3691,-1.3754,-1.3787,-1.3801,-1.3868,-1.3893,-1.3968,-1.3988,-1.404,-1.414,-1.4186,-1.4223,-1.4291,-1.4305,-1.4308,-1.4331,-1.4377,-1.4384,-1.4391,-1.4419,-1.4428,-1.4315,-1.4315,-1.4315,0,-1.3559,-1.3643,-1.3676,-1.3735,-1.3773,-1.3795,-1.3853,-1.3893,-1.3973,-1.4,-1.3992,-1.4121,-1.4165,-1.4256,-1.4272,-1.43,-1.4319,-1.4302,-1.438,-1.4387,-1.4394,-1.4421,-1.4431,-1.4315,-1.4315,-1.4315,-1.4315,0,-1.3649,-1.3707,-1.3744,-1.382,-1.3862,-1.392,-1.3965,-1.4003,-1.4022,-1.4057,-1.4135,-1.4188,-1.4259,-1.4282,-1.4301,-1.4377,-1.4372,-1.4371,-1.4359,-1.4402,-1.4429,-1.4439,-1.4316,-1.4316,-1.4316,-1.4315,0,0,-1.3693,-1.3787,-1.3801,-1.3837,-1.3909,-1.3955,-1.4015,-1.4083,-1.4118,-1.4172,-1.4226,-1.4311,-1.4312,-1.4353,-1.4377,-1.4417,-1.4473,-1.4413,-1.4415,-1.4426,-1.4564,-1.4566,-1.4578,-1.4481,-1.4483,-1.4484,-1.456,0,-1.3754,-1.3861,-1.3894,-1.3984,-1.404,-1.4063,-1.4116,-1.4167,-1.4201,-1.4255,-1.4293,-1.4354,-1.4348,-1.4374,-1.4414,-1.4457,-1.4502,-1.4452,-1.4535,-1.4538,-1.4522,-1.4591,-1.4594,-1.4662,-1.457,-1.4572,-1.4573,0,-1.384,-1.3896,-1.3992,-1.4059,-1.4084,-1.4131,-1.4198,-1.4247,-1.4307,-1.4329,-1.4376,-1.4397,-1.4464,-1.4444,-1.4539,-1.4504,-1.454,-1.4566,-1.457,-1.4582,-1.456,-1.4609,-1.4685,-1.4696,-1.4589,-1.4588,-1.4587,0,-1.3867,-1.3966,-1.4037,-1.4067,-1.4146,-1.4179,-1.4214,-1.4272,-1.4312,-1.437,-1.4398,-1.4463,-1.45,-1.4551,-1.4591,-1.4572,-1.4683,-1.4666,-1.4707,-1.4706,-1.4732,-1.473,-1.4818,-1.4748,-1.4748,-1.4747,-1.4747,0,-1.3934,-1.3993,-1.4051,-1.4095,-1.4163,-1.42,-1.4267,-1.4303,-1.4355,-1.4409,-1.4431,-1.4481,-1.4528,-1.4586,-1.4617,-1.4693,-1.4708,-1.473,-1.4739,-1.4731,-1.4728,-1.4757,-1.4755,-1.475,-1.475,-1.4749,-1.4749,0,-1.3978,-1.4018,-1.4098,-1.4167,-1.4185,-1.4233,-1.4293,-1.4338,-1.4372,-1.444,-1.4458,-1.4513,-1.4582,-1.4626,-1.4713,-1.4734,-1.4818,-1.4823,-1.4798,-1.4803,-1.4842,-1.484,-1.4955,-1.4974,-1.4887,-1.4888,-1.4888,0,-1.402,-1.4066,-1.4139,-1.4176,-1.4212,-1.427,-1.4311,-1.435,-1.4392,-1.4464,-1.4502,-1.4572,-1.463,-1.4739,-1.4789,-1.4856,-1.4866,-1.4901,-1.4876,-1.4868,-1.4871,-1.487,-1.4877,-1.4907,-1.4907,-1.4908,-1.4908,0,-1.4091,-1.4109,-1.4166,-1.4232,-1.428,-1.4333,-1.4386,-1.4416,-1.4464,-1.451,-1.4581,-1.4626,-1.4715,-1.4786,-1.4858,-1.4896,-1.4913,-1.4915,-1.4929,-1.4924,-1.4909,-1.4922,-1.4814,-1.4914,-1.4913,-1.4913,-1.4912,-1.4912,-1.4138,-1.4182,-1.4241,-1.4305,-1.4349,-1.4399,-1.4445,-1.4486,-1.4544,-1.462,-1.4639,-1.4714,-1.4775,-1.4873,-1.4913,-1.4974,-1.4969,-1.4988,-1.4994,-1.4999,-1.5002,-1.4896,-1.4986,-1.4986,-1.4986,-1.4986,-1.4986,0,-1.4215,-1.4254,-1.4312,-1.4386,-1.4437,-1.4445,-1.4505,-1.4548,-1.4613,-1.4667,-1.4724,-1.4807,-1.4875,-1.493,-1.5001,-1.504,-1.5049,-1.5058,-1.5057,-1.5067,-1.4999,-1.4982,-1.5049,-1.5049,-1.5049,-1.5049,-1.5049,-1.5049,-1.4261,-1.4336,-1.4361,-1.4459,-1.4498,-1.4571,-1.4605,-1.4652,-1.4697,-1.4787,-1.4844,-1.4878,-1.4934,-1.501,-1.5075,-1.5089,-1.5117,-1.5124,-1.5141,-1.5078,-1.5071,-1.5065,-1.5049,-1.5129,-1.5129,-1.5204,-1.5205,-1.5205]}]]